Weather in Armacao de Pera

Portugal     37°06′11″N   8°21′46″W
temp.,
°C
wind,
m/s
gust,
m/s
humid.,
%
clouds,
%
prec.,
mm/h
press.,
hPa
HPBL,
m
18 april, sun
sun1801:00+15n446480 0.0 1019103
04:00+15n3364100 0.0 101887
07:00+16nne1157100 0.0 101864
10:00+18s115570 0.0 1020191
13:00+18sse435683 0.0 1020420
16:00+18ssw33565 0.0 1019372
19:00+18w56665 0.0 1019292
22:00+16nw4575100 0.0 1021147
19 april, mon
mon1901:00+16nw4475100 0.0 1020140
04:00+15nnw4472100 0.0 1018129
07:00+14nnw44683 0.0 1018127
10:00+17nnw34515 0.0 1019365
13:00+18sw4453100 0.0 1018465
16:00+20w89560 0.0 1016507
19:00+19nw810510 0.0 1016330
22:00+16nw611710 0.0 1018403
20 april, tue
tue2001:00+14nnw510834 0.0 1018322
04:00+14nnw47865 0.0 1017231
07:00+13nnw46884 0.0 1017227
10:00+17nnw466821 0.0 1017631
13:00+18wsw666698 0.0 1016771
16:00+20wnw101159100 0.0 1014804
19:00+19wnw896413 0.0 1015560
22:00+15nw6881100 0.0 1016403
21 april, wed
wed2101:00+14nnw5788100 0.0 1015285
04:00+14nnw4688100 0.0 1014269
07:00+14nnw3487100 0.0 1015195
10:00+16wnw227662 0.0 1015394
13:00+19wsw6764100 0.0 1015853
16:00+19w10966100 0.0 1014794
19:00+18wnw7869100 0.0 1014642
22:00+16nw5679100 0.0 1016300
22 april, thu
thu2201:00+15nw338578 0.0 1017195
04:00+14nnw228817 0.0 1016145
07:00+14ne218697 0.0 101589
10:00+17se337913 0.0 1017421
13:00+17s4480100 0.0 1017506
16:00+18ssw447918 0.0 1015564
19:00+18ssw448010 0.0 1015553
22:00+17sw3487100 0.0 1016239